Location: Brunsbüttel
(52.3892°N, 10.6138°E)
Time: 19:45:22
(UTC+00:00)

SL-24 R/B - Pass Details

Date: 19 May 2025
Orbit: 623 x 1072 km, 98.1° (Epoch: 20 June)

Event Time Altitude Azimuth Distance (km) Brightness Sun altitude
Rises 21:02:38 0° 16° (NNE) 2,924 8.2 -12.2°
Reaches altitude 10° 21:04:50 10° 19° (NNE) 2,009 7.3 -12.4°
Maximum altitude 21:09:07 67° 102° (ESE) 692 4.1 -12.7°
Enters shadow 21:12:53 14° 185° (S) 1,795 5.9 -13.0°
